Монтелимар

Франция     44°33′17″N   4°44′57″E
темп.,
°C
ветер,
м/с
пор.,
м/с
влажн.,
%
обл.,
%
осадки,
мм/ч
давл.,
гПа
погр.,
м
14 апреля, ср
ср1423:00+7с71553100 0.0 1024891
02:00+4ссв513665 0.0 1024556
05:00+2с4127218 0.0 1024456
08:00+2ссв51270100 0.0 1024462
11:00+6ссв71054100 0.0 1024706
14:00+11ссв783910 0.0 10221053
17:00+12ссв810340 0.0 10201134
20:00+10с712420 0.0 1020863
15 апреля, чт
чт1523:00+7с614470 0.0 1022730
02:00+4с512640 0.0 1022493
05:00+2ссв512730 0.0 1022439
08:00+2ссв614724 0.0 1022647
11:00+7ссв811554 0.0 1022931
14:00+11ссв810401 0.0 10201383
17:00+13с78360 0.0 10181558
20:00+10ссв712430 0.0 1018835
16 апреля, пт
пт1623:00+6ссв511490 0.0 1020497
02:00+4с37643 0.0 1019212
05:00+2ссв38733 0.0 1019220
08:00+2ссв410752 0.0 1019372
11:00+7ссв68533 0.0 1019829
14:00+12ссв66433 0.0 10171212
17:00+13ссв773813 0.0 10151782
20:00+10с51052100 0.0 1016648
17 апреля, сб
сб1723:00+7с41061100 0.0 1017498
02:00+5с41068100 0.0 1017416
05:00+4ссв51175100 0.0 1017523
08:00+3ссв71477100 0.0 1017653
11:00+7ссв101460100 0.0 1017998
14:00+10ссв1013516 0.0 10161294
17:00+12ссв1014475 0.0 10151546
20:00+10ссв8156194 0.0 10151179
18 апреля, вс
вс1823:00+9с8156297 0.0 10161142
02:00+7с7146917 0.0 1017885
05:00+5с6158290 0.0 1017852
08:00+5ссв815775 0.0 10181065
11:00+10ссв1016575 0.0 10171478
14:00+13ссв10134775 0.0 10172009
17:00+12с913567 0.0 10171394
20:00+11с7146023 0.0 10171321